User: anonymous   Login
Location: Unspecified
(0.0000°N, 0.0000°E)
Time: 12:38:55
(UTC+00:00)
Language:

YAOGAN 7 - Orbit

View from above orbital plane
View from above orbital plane
View from above satellite
View from above satellite

Ground track
Ground track

The orbit data is extracted from the following two-line orbital elements,

1 36110U 09069A   18201.09931712  .00000009  00000-0  94887-5 0  9999
2 36110  98.2546  11.8897 0023127 284.9975  74.8668 14.75139294463546
Epoch (UTC): 20 July 2018 02:23:00
Eccentricity: 0.0023127
inclination: 98.2546°
perigee height: 628 km
apogee height: 661 km
right ascension of ascending node: 11.8897°
argument of perigee: 284.9975°
revolutions per day: 14.75139294
mean anomaly at epoch: 74.8668°
orbit number at epoch: 46354

The dashed part of the orbit path shows where the satellite is in the earth's shadow,  

DLR